STARLINK-32272, 60735

Orbit data source: Space-Track

STARLINK-32272, 60735 is a payload satellite owned by SpaceX/Seattle (US) in LEO that was launched on Wed, 28 Aug 2024 UTC via an FALCON 9 launch vehicle from the Air Force Eastern Test Range (AFETR). Payloads include a variety of satellites, spacecraft, and rockets equipped with specific instruments for various scientific and technological missions. These include communications satellites like Starlink; space stations such as the ISS; scientific satellites like the Hubble; Earth observation satellites from companies like Planet Labs, Umbra, and HawkEye 360; GPS; miniature CubeSats for education and research; and military/defense satellites.

Loading next visibility...
STARLINK-32272 details
Identifier
60735, 2024-152R
Orbit
LEO
Last TLE update9 hours ago
Origin
Flag of USSpaceX/Seattle (US)
ManufacturerSpaceX/Seattle
MissionOperational spacecraft
Bus & MotorSTARLINK V2M, Unknown motor
Mass730 kg wet, ~700 kg dry
Launch date (UTC)
2024-08-28 (5 months ago)
Launch vehicle
FALCON 9
Launch site
Air Force Eastern Test Range (AFETR)
Object type
Payload
Rocket body
Debris
Shape & HBRUnknown
Radar Cross SectionLarge (>1 m²)

Expand to show TLE details & history

TLE from 9 hours ago
0 STARLINK-32272
1 60735U 24152R   25015.13475012  .00000315  00000-0  22771-4 0  9993
2 60735  53.1595  52.9010 0001240 105.7638 254.3500 15.30198410 22718
Epoch: 2025-01-15T03:14Z
Definitive object data (Epoch: 2025-01-15T03:14:02.41Z)
Latitude0.00002°
Longitude-110.44047°
Altitude476.349 km
Speed7.629 km/s
True Right ascension03h 31m 36s
True Declination0° 00' 00"
Sunlit
Object was in full shadow at TLE epoch
Visualization TLE readout
Latitude-30.1343°
Longitude93.48388°
Altitude484.726 km
Speed7.623 km/s
Apparent Right ascension20h 21m 04s
Apparent Declination-51° 20' 05"
Sunlit
Object is in daylight
Visualization observer readout
Local Sidereal Time12:41:40
Azimuth127.205° SE
Elevation-44.621°
Doppler factor1
Orbital elements
Apogee altitude476.326 km
Perigee altitude474.626 km
Semi-major axis6,853.613 km
Eccentricity0.000124
Inclination53.1595°
RAAN52.901°
Arg. of periapsis105.7638°
True anomaly254.33632°
Mean anomaly254.35°
Eccentric anomaly254.34316°
Mean motion3.82528 °/min
BSTAR0.000022771
Orbital period94.11 mins
Loading maneuver chart data...
Loading historical data...
Loading historical data...
Loading historical data...
Loading historical data...
Loading historical data...
Loading historical data...
Loading historical data...

STARLINK-32272 Visibility forecast

Observer location: undefined°, undefined

Span
Click to sort rows by Start time (UTC) header in descending order
Start Az.
Max El. time (UTC)
Max El. Az.
Max El.
End time (UTC)
End Az.
5 mins2025-01-15 13:11:22.370Z275.951° WNW2025-01-15 13:13:22.370Z239.238° WSW19.539°2025-01-15 13:16:22.370Z182.003° SSW
5 mins2025-01-16 04:29:22.370Z197.652° SSW2025-01-16 04:31:22.370Z145.315° SSE34.096°2025-01-16 04:34:22.370Z66.098° ENE
4 mins2025-01-16 06:08:22.370Z298.458° NW2025-01-16 06:09:22.370Z324.535° NNW24.082°2025-01-16 06:12:22.370Z27.568° NE
5 mins2025-01-16 11:04:22.370Z333.034° NNW2025-01-16 11:06:22.370Z26.678° NE32.329°2025-01-16 11:09:22.370Z100.385° ESE
|